Regional Weather Roundup
Issued by NWS

Home | Current Version | Previous Version | Graphics & Text | Print | Product List | Glossary On
Versions: 1 2 3 4 5 6 7 8 9 10 11 12 13 14 15 16 17 18 19 20 21 22 23 24 25 26 27 28 29 30 31 32 33 34 35 36 37 38 39 40 41 42 43 44 45 46 47 48 49 50
907
ASUS43 KMPX 230301
RWRMN
WEATHER ROUNDUP FOR MINNESOTA
NATIONAL WEATHER SERVICE TWIN CITIES/CHANHASSEN MN
900 PM CST WED FEB 22 2017


NOTE: "FAIR" INDICATES FEW OR NO CLOUDS BELOW 12,000 FEET WITH NO
SIGNIFICANT WEATHER AND/OR OBSTRUCTIONS TO VISIBILITY. N/A MEANS
CURRENT SKY AND/OR WEATHER CONDITIONS ARE NOT AVAILABLE.

MNZ060>063-068>070-230400-
   Twin Cities Metro

CITY           SKY/WX    TMP DP  RH WIND       PRES   REMARKS
TWIN CITIES    CLOUDY    43  37  79 NW21      29.68R
ST PAUL        CLOUDY    44  39  82 NW16      29.68R
CRYSTAL        CLOUDY    41  34  76 NW10      29.68R
BLAINE         CLOUDY    43  37  81 NW20      29.69R
LAKEVILLE      MOCLDY    43  39  87 NW15G23   29.67R
EDEN PRAIRIE   CLOUDY    42  36  79 NW15      29.67R
SOUTH ST PAUL  CLOUDY    46  38  75 NW10      29.67R
LAKE ELMO      CLOUDY    43  37  81 NW14      29.67R
$$
MNZ001>005-007-008-013>017-022>024-027-028-230400-
   Northwest Minnesota

CITY           SKY/WX    TMP DP  RH WIND       PRES   REMARKS
BEMIDJI        PTCLDY    25  22  89 NW6       29.83R WCI  18
HALLOCK        CLOUDY    28  25  86 N10       29.92R WCI  19
ROSEAU         CLOUDY    30  25  80 N8        29.88R WCI  23
WARROAD        CLOUDY    30  23  74 N17       29.88R WCI  18
THIEF RVR FALL MOCLDY    30  26  85 N12       29.89R WCI  20
CROOKSTON      CLEAR     30  28  93 N10       29.92R WCI  21
FOSSTON        CLEAR     27  25  93 NW9       29.87R WCI  17
DETROIT LAKES  CLOUDY    32  28  86 N8G18     29.86R WCI  25
MOORHEAD       PTCLDY    32  28  86 N15       29.90R WCI  22
PARK RAPIDS    MOCLDY    31  24  75 N12       29.81R WCI  22
MAHNOMEN       MOCLDY    30  26  84 N9        29.86R WCI  22
$$
MNZ006-009>011-018-025>026-230400-
   North Central Minnesota

CITY           SKY/WX    TMP DP  RH WIND       PRES   REMARKS
BAUDETTE       CLEAR     28  19  69 N12       29.84R WCI  18
FLAG ISLAND    CLOUDY    27  19  74 N22G28    29.87R WCI  12
INTL FALLS     CLOUDY    27  23  85 NW6       29.81R WCI  20
WASKISH        PTCLDY    28  25  86 NW6       29.84R WCI  22
BIG FORK       CLOUDY    30  27  86 N3        29.80R
LONGVILLE      FLURRIES  30  28  93 N7        29.79R WCI  23
GRAND RAPIDS   LGT SNOW  31  29  92 N16       29.79R FOG     WCI  20
CRANE LAKE     CLOUDY    30  25  80 N5        29.80S WCI  25
ORR            CLOUDY    28  25  86 CALM      29.76R
COOK           CLOUDY    30  28  93 N6        29.77R WCI  24
WALKER         FAIR      28  25  87 N7        29.82R WCI  21
$$
MNZ012-019>021-037-230400-
   Northeast Minnesota

CITY           SKY/WX    TMP DP  RH WIND       PRES   REMARKS
DULUTH         LGT SNOW  34  33  96 N12       29.70R FOG     WCI  25
ELY            LGT SNOW  30  30 100 NW3       29.74R
HIBBING        LGT SNOW  31  31 100 N12       29.75R FOG     WCI  22
EVELETH        LGT SNOW  32  31  94 N7        29.76R WCI  26
DULUTH HARBOR  MIX PCPN  34  32  93 CALM      29.73R
TWO HARBORS    LGT SNOW  36  30  80 N5        29.68S
SILVER BAY     MIX PCPN  36  34  93 N3        29.68R
GRAND MARAIS     N/A     36  33  89 CALM      29.71R
G MARAIS ARPRT LGT SNOW  30  25  80 N10       29.68R WCI  21
$$
MNZ029>031-032-039>041-046>048-054>057-064-230400-
   West Central Minnesota

CITY           SKY/WX    TMP DP  RH WIND       PRES   REMARKS
FERGUS FALLS   CLOUDY    32  28  86 N15G21    29.90R WCI  22
WHEATON        CLOUDY    32  28  86 NW12      29.90R WCI  23
MORRIS         CLOUDY    34  30  86 N14       29.83R WCI  24
ALEXANDRIA     CLOUDY    34  32  92 N10       29.81R WCI  26
ELBOW LAKE     CLOUDY    32  30  93 N14       29.85R WCI  22
WADENA         CLOUDY    30  28  93 N12       29.82R WCI  21
GLENWOOD       CLOUDY    34  32  93 N13       29.81R WCI  25
APPLETON       CLOUDY    36  32  87 N18       29.83R
BENSON         CLOUDY    37  30  75 N13       29.83R
ORTONVILLE     CLOUDY    32  28  86 N20G28    29.86R WCI  20
MADISON        CLOUDY    37  36  93 NW14G23   29.85R
WILLMAR        CLOUDY    37  34  87 N15G21    29.80R
$$
MNZ033>034-036-042>043-049>051-058-059-230400-
   Central Minnesota

CITY           SKY/WX    TMP DP  RH WIND       PRES   REMARKS
ST CLOUD       CLOUDY    35  33  92 N13       29.75R WCI  26
SAUK CENTRE    CLOUDY    33  31  91 N10G17    29.79R WCI  25
PAYNESVILLE    CLOUDY    35  32  89 N9G21     29.79R WCI  28
AITKIN         LGT SNOW  36  30  80 N12       29.74R
PINE RIVER     CLOUDY    30  28  93 N14G23    29.82R WCI  20
BRAINERD       LGT SNOW  32  31  96 N13       29.77R FOG     WCI  22
STAPLES        CLOUDY    30  28  93 N16G22    29.80R WCI  19
LONG PRAIRIE   CLOUDY    32  32 100 NW13      29.80R WCI  22
LITTLE FALLS   CLOUDY    32  32 100 N9        29.78R WCI  24
LITCHFIELD     CLOUDY    37  34  87 N18       29.76R
BUFFALO        CLOUDY    38  34  85 NW13G18   29.73R
MAPLE LAKE     CLOUDY    37  34  90 N16       29.74R
HUTCHINSON     CLOUDY    39  37  91 NW16      29.75R
$$
MNZ037-044-045-052-053-230400-
   East Central Minnesota

CITY           SKY/WX    TMP DP  RH WIND       PRES   REMARKS
PRINCETON      CLOUDY    37  34  87 NW13      29.73R
MORA           LGT RAIN  32  30  93 N9        29.73R WCI  24
CAMBRIDGE      DRIZZLE   37  32  81 N10G17    29.70R
RUSH CITY      RAIN      37  34  87 N9G17     29.71R
MOOSE LAKE     LGT SNOW  32  32 100 N6        29.71R WCI  26
HINCKLEY       LGT SNOW  34  34 100 N10G17    29.71R WCI  26
CLOQUET        LGT SNOW  34  30  86 N14       29.71R WCI  24
MCGREGOR       CLOUDY    32  32 100 N13G18    29.74R WCI  22
$$
MNZ071>073-080-081-089-090-097-098-230400-
   Southwest Minnesota

CITY           SKY/WX    TMP DP  RH WIND       PRES   REMARKS
MONTEVIDEO     CLOUDY    36  34  93 N14       29.84R
GRANITE FALLS  CLOUDY    37  34  90 NW15      29.83R
CANBY          CLOUDY    35  33  92 NW13      29.86R WCI  26
MARSHALL       CLOUDY    34  32  92 N22G29    29.81R WCI  22
REDWOOD FALLS  CLOUDY    37  34  89 NW13      29.79R
OLIVIA         CLOUDY    37  34  87 N18       29.78R
PIPESTONE      CLOUDY    36  30  80 N15       29.80R
WINDOM         CLOUDY    37  36  93 NW21G26   29.78R
WORTHINGTON    CLOUDY    37  35  92 NW16      29.80R
JACKSON          N/A     37  36  93 NW24G32   29.77R
TRACY          CLOUDY    36  34  93 NW18      29.82R
SLAYTON        CLOUDY    33  32  94 N21G29    29.80R WCI  22
$$
MNZ065>067-074>077-082>085-091>093-230400-
   South Central Minnesota

CITY           SKY/WX    TMP DP  RH WIND       PRES   REMARKS
MANKATO          N/A     41  38  89 NW17      29.72R
NEW ULM        CLOUDY    39  36  87 NW17G25   29.76R
ST JAMES       CLOUDY    39  37  93 W23G29    29.78R
FAIRMONT       CLOUDY    40  37  89 NW28G36   29.75R
GLENCOE        CLOUDY    42  39  91 NW10      29.72R
FARIBAULT      CLEAR     45  41  87 W12G17    29.68R
OWATONNA       PTCLDY    43  39  87 W13       29.69R
WASECA         MOCLDY    41  37  87 W15       29.71R
ALBERT LEA     CLOUDY    45  41  87 NW10G17   29.69R
$$
MNZ078>079-086>088-094>096-230400-
   Southeast Minnesota

CITY           SKY/WX    TMP DP  RH WIND       PRES   REMARKS
ROCHESTER      CLOUDY    47  45  93 NW16      29.65R
RED WING       PTCLDY    48  41  76 W8        29.63R
STANTON        PTCLDY    47  41  80 NW16G24   29.64R
DODGE CENTER   PTCLDY    45  41  87 W18       29.66R
WINONA         MOCLDY    50  45  81 NW8       29.61R
AUSTIN         CLOUDY    45  39  81 NW18G26   29.68R
PRESTON        CLEAR     47  43  85 NW14      29.63S
$$
ABBREVIATIONS USED IN REMARKS
   TC - TEMPERATURES IN CELSIUS
  WCI - WIND CHILL INDEX
   HX - HEAT INDEX
  VSB - VISIBILITY
$$




USA.gov is the U.S. government's official web portal to all federal, state and local government web resources and services.